Starlink 1788

operational
NORAD ID: 46689 Int'l Des: 2020-073 Owner: SPXS Country: US Constellation: starlink
LEOCIRCULARSTARLINK_TYPE

Starlink 1788について

説明を読み込み中...

リアルタイム位置

3D地球を読み込み中...

次回通過

高度履歴

Altitude vs Time

uPlot chart will show altitude changes over time

軌道要素

1 46689U 20073V 25298.50003471 .02042824 00000-0 89937-1 0 9990
2 46689 53.0542 143.9315 0001238 73.9334 235.6575 15.17694925 5785
Epoch: Oct 25, 2025 • Age: 9 hours

現在のステータス

高度 512.3 km
速度 7.61 km/s
衛星直下点 -12.80°S, 17.2°W
打ち上げ日 Oct 18, 2020
運用期間 5 years
タイプ internet

技術仕様

分類 Payload
質量 260.00 kg
乾燥質量 248.00 kg
総質量 260.00 kg
長さ 0.20 m
直径 2.80 m
スパン 9.00 m
形状 Box + pan
製造者 SPXS
バスタイプ Starlink
フェーズステータス In Orbit
所有者/国 SPXS/US

大規模コンステレーション

Loading constellations...